Content
SEND FEEDBACK

Daily
Averages
Monthly
Summary
United States of America

MAURICEVILLE, TEXAS


Home > North America > United States > Texas
Elevation: 6 meters     Latitude: 30 14N     Longitude: 093 44W

WEATHER
 
SELECT A DAY
Number of Records: 108,109;   Date Range: 8/25/05 - 7/27/14
 
SHARE

PRINT THIS DATA

[ ← Previous Day ]
WEATHER ALMANAC - 15 SEPTEMBER, 2013
[ Next Day → ]
[ °F ]   °C
Weather ElementAverageHighLow
Temperature27 °C31.8 °C (12:55 pm)23 °C (2:15 am)
Dewpoint22.9 °C24.5 °C (3:15 pm)21.8 °C (4:55 pm)
Humidity79.4 %95 % (1:35 am)56 % (4:55 pm)
Barometer1015.6 hPa1016.9 hPa (11:15 am)1014.2 hPa (12:35 am)
Wind Speed8.5 km/h44.4 km/h (2:35 pm)
Wind Gust51.8 km/h (2:35 pm)
Weather ElementAverage
Visibility13.8 km
Wind DirectionENE (74.4 °)

Weather ElementTotal
Precipitation0.25 mm
Cooling Degree Days9.1 (Base 18.3)
Growing Degree Days17.4 (Base 10)
Averaged from 71 records on 15 September, 2013
WEATHER CONDITIONS BREAKOUT
WIND DIRECTION BREAKOUT
WEATHER BY HOUR - 15 SEPTEMBER, 2013
[ °F ]   °C
Local TimeTemperatureDewpointHumidityBarometerVisibilityWind DirectionWind SpeedGust SpeedPrecipitationEventsConditions
12:35 AM24.2 °C23 °C93 %1014.2 hPa11.3 kmCalmClear
12:55 AM23.8 °C22.7 °C94 %1014.2 hPa8 kmNNW (330°)5.6 km/hClear
1:15 AM23.6 °C22.6 °C94 %1014.2 hPa8 kmCalmClear
1:35 AM23.2 °C22.4 °C95 %1014.2 hPa6.4 kmCalmClear
1:55 AM23.1 °C22.3 °C95 %1014.2 hPa8 kmCalmClear
2:15 AM23 °C22.2 °C95 %1014.2 hPa8 kmCalmClear
2:35 AM23.2 °C22.3 °C95 %1014.2 hPa11.3 kmCalmClear
2:55 AM23.1 °C22.2 °C95 %1014.2 hPa11.3 kmCalmClear
3:15 AM23 °C22 °C94 %1014.2 hPa8 kmCalmClear
3:35 AM23.1 °C22.2 °C95 %1014.2 hPa11.3 kmNE (40°)7.4 km/hClear
3:55 AM23.6 °C22.4 °C93 %1014.2 hPa11.3 kmNE (40°)9.3 km/hClear
4:15 AM23.7 °C22.3 °C92 %1014.2 hPa11.3 kmNE (40°)9.3 km/hClear
4:35 AM23.6 °C22.2 °C92 %1014.2 hPa11.3 kmNE (40°)7.4 km/hClear
4:55 AM23.5 °C22.1 °C92 %1014.2 hPa11.3 kmNE (40°)7.4 km/hClear
5:15 AM23.2 °C22 °C93 %1014.6 hPa11.3 kmNE (50°)5.6 km/hClear
5:35 AM23.4 °C22 °C92 %1014.6 hPa16.1 kmENE (70°)7.4 km/hClear
5:55 AM23.3 °C22 °C92 %1014.9 hPa11.3 kmNE (50°)7.4 km/hClear
6:15 AM23.5 °C22.1 °C92 %1014.9 hPa11.3 kmNE (50°)9.3 km/hClear
6:35 AM23.7 °C22.2 °C91 %1015.2 hPa11.3 kmENE (60°)7.4 km/hScattered Clouds
6:55 AM23.5 °C22.1 °C92 %1015.2 hPa11.3 kmNE (50°)7.4 km/hClear
7:15 AM23.5 °C22.1 °C92 %1015.2 hPa11.3 kmNNE (30°)5.6 km/hClear
7:35 AM23.5 °C22.2 °C92 %1015.2 hPa8 kmNNE (30°)7.4 km/hClear
7:55 AM23.6 °C22.3 °C92 %1015.6 hPa8 kmNE (50°)7.4 km/hClear
8:15 AM24.6 °C22.9 °C90 %1015.6 hPa11.3 kmNE (50°)9.3 km/hClear
8:35 AM25.5 °C23.1 °C86 %1015.9 hPa16.1 kmNE (50°)14.8 km/hClear
8:55 AM25.8 °C23.2 °C85 %1015.9 hPa16.1 kmENE (60°)13 km/hClear
9:15 AM26.5 °C23.4 °C83 %1015.9 hPa16.1 kmENE (60°)13 km/hClear
9:35 AM26.9 °C23.5 °C82 %1016.3 hPa16.1 kmENE (60°)14.8 km/hClear
9:55 AM27.8 °C23.9 °C79 %1016.3 hPa16.1 kmENE (70°)16.7 km/hClear
10:15 AM28.6 °C24 °C76 %1016.6 hPa16.1 kmENE (60°)14.8 km/hClear
10:35 AM29 °C24.1 °C75 %1016.6 hPa16.1 kmNE (50°)14.8 km/hClear
10:55 AM29.7 °C24 °C71 %1016.6 hPa16.1 kmENE (70°)14.8 km/hScattered Clouds
11:15 AM30.1 °C23.1 °C66 %1016.9 hPa16.1 kmEast (80°)13 km/hScattered Clouds
11:35 AM30.7 °C23.8 °C66 %1016.9 hPa16.1 kmEast (90°)13 km/hScattered Clouds
11:55 AM31 °C23.3 °C63 %1016.9 hPa16.1 kmEast (80°)11.1 km/hMostly Cloudy
12:15 PM31 °C23.4 °C64 %1016.9 hPa16.1 kmEast (90°)11.1 km/h16.7 km/hMostly Cloudy
12:35 PM31.5 °C23.3 °C62 %1016.9 hPa16.1 kmESE (110°)9.3 km/hMostly Cloudy
12:55 PM31.8 °C23.6 °C62 %1016.6 hPa16.1 kmEast (80°)11.1 km/hMostly Cloudy
1:15 PM31.1 °C23.1 °C62 %1016.6 hPa16.1 kmESE (110°)7.4 km/hMostly Cloudy
1:35 PM30.9 °C23 °C63 %1016.3 hPa16.1 kmEast (100°)13 km/hMostly Cloudy
1:55 PM29 °C22 °C66 %1015.9 hPa16.1 kmSSE (160°)5.6 km/hMostly Cloudy
2:15 PM30.2 °C23.3 °C66 %1015.6 hPa16.1 kmCalmMostly Cloudy
2:35 PM29.4 °C22.5 °C66 %1015.9 hPa11.3 kmEast (80°)44.4 km/h51.8 km/hRainHeavy Rain
2:55 PM27.6 °C23.2 °C77 %1015.9 hPa8 kmCalm0.25 mmRainLight Rain
3:15 PM29.7 °C24.5 °C73 %1015.2 hPa16.1 kmEast (100°)16.7 km/h25.9 km/hMostly Cloudy
3:35 PM29.2 °C23.7 °C72 %1015.2 hPa16.1 kmEast (80°)11.1 km/hScattered Clouds
3:55 PM30.5 °C23.7 °C67 %1015.2 hPa8 kmEast (90°)16.7 km/hHaze
4:15 PM31 °C23.1 °C63 %1015.2 hPa16.1 kmEast (90°)13 km/hClear
4:35 PM31.5 °C22 °C57 %1015.2 hPa16.1 kmEast (90°)11.1 km/hClear
4:55 PM31.5 °C21.8 °C56 %1015.2 hPa16.1 kmESE (110°)14.8 km/hScattered Clouds
5:15 PM31 °C22.1 °C59 %1014.9 hPa16.1 kmEast (100°)7.4 km/hScattered Clouds
5:35 PM30.3 °C22.8 °C64 %1015.2 hPa16.1 kmESE (110°)7.4 km/hClear
5:55 PM30 °C23.3 °C67 %1015.2 hPa16.1 kmESE (110°)13 km/hScattered Clouds
6:15 PM29.8 °C23.1 °C67 %1015.2 hPa16.1 kmESE (120°)9.3 km/hClear
6:35 PM29.5 °C23.3 °C69 %1015.2 hPa16.1 kmESE (120°)13 km/hClear
6:55 PM29 °C23 °C70 %1015.2 hPa16.1 kmESE (120°)11.1 km/hClear
7:15 PM28.7 °C23.5 °C73 %1015.6 hPa16.1 kmSE (140°)7.4 km/hClear
7:35 PM28.4 °C22.9 °C72 %1015.6 hPa16.1 kmSE (130°)9.3 km/hClear
7:55 PM27.9 °C23 °C75 %1015.6 hPa16.1 kmESE (120°)7.4 km/hClear
8:15 PM27.6 °C23.3 °C77 %1015.9 hPa16.1 kmESE (110°)5.6 km/hClear
8:35 PM27.5 °C23.3 °C78 %1015.9 hPa16.1 kmESE (110°)5.6 km/hClear
8:55 PM27.1 °C23.3 °C80 %1016.3 hPa16.1 kmESE (120°)7.4 km/hClear
9:15 PM26.8 °C23.3 °C81 %1016.3 hPa16.1 kmESE (110°)7.4 km/hClear
9:35 PM26.5 °C23.5 °C83 %1016.6 hPa16.1 kmCalmClear
9:55 PM26.5 °C23.5 °C83 %1016.6 hPa16.1 kmESE (110°)7.4 km/hClear
10:15 PM26.4 °C23.5 °C84 %1016.6 hPa16.1 kmESE (120°)5.6 km/hClear
10:35 PM26.5 °C23.5 °C83 %1016.6 hPa16.1 kmESE (110°)7.4 km/hClear
10:55 PM26.3 °C23.5 °C84 %1016.9 hPa16.1 kmESE (110°)5.6 km/hClear
11:15 PM26.2 °C23.4 °C84 %1016.9 hPa16.1 kmSE (140°)5.6 km/hClear
11:35 PM26.3 °C23.1 °C82 %1016.9 hPa16.1 kmSE (130°)5.6 km/hClear
11:55 PM26.2 °C23.1 °C83 %1016.9 hPa16.1 kmCalmClear
Hourly data recorded from KORG, located 0 kilometers away from Mauriceville, Texas







STORIES FROM OUR PARTNERS